Temperature
19 19 19 19 18 17 17 17 16 16 16 16 16 16 16 16 16 16 16 15 15 15 15 15 15 15 15 15 15 15 15 15 15 15 16 16 17 17 17 18 17 17 17
20 20 19 19 19 18 17 17 16 16 15 15 15 15 15 15 16 16 16 15 15 15 14 15 15 15 15 15 15 15 15 15 15 15 16 16 17 17 18 18 18 17 17
21 20 20 19 19 18 18 17 16 15 15 14 14 14 14 15 15 15 15 15 15 14 14 14 15 15 15 15 15 15 15 15 15 15 16 16 17 18 18 18 18 18 18
21 20 20 20 19 18 18 17 16 15 14 14 13 13 13 13 14 14 14 14 14 14 14 14 14 14 14 15 15 15 15 15 15 15 16 16 17 17 18 18 18 18 18
21 21 20 20 19 18 17 17 16 15 14 13 13 12 12 12 12 13 13 13 14 14 14 14 14 14 14 14 14 14 15 15 15 15 15 16 16 17 17 18 18 18 18
22 21 21 20 19 18 17 17 16 15 14 13 12 12 12 12 12 12 12 13 13 14 14 14 14 14 14 14 14 14 14 14 15 15 15 15 16 17 18 18 18 18 18
22 21 21 20 19 18 17 16 15 14 14 13 12 12 11 11 11 12 12 12 12 13 13 13 13 13 13 13 14 14 14 14 14 15 15 15 15 16 17 18 18 18 18
22 22 21 19 19 18 17 16 15 14 13 12 12 11 11 11 11 11 11 11 11 12 12 12 12 12 12 13 13 13 13 14 14 14 14 15 15 16 16 17 18 18 18
22 21 20 19 18 17 16 15 14 13 12 12 11 11 11 10 10 10 10 10 10 11 11 11 12 12 12 12 12 12 13 13 13 14 14 14 15 15 16 17 17 17 18
21 20 19 18 17 16 15 14 14 13 12 11 11 11 10 9 9 9 9 9 9 9 10 10 10 11 11 11 11 12 12 12 13 13 13 14 14 15 15 16 16 17 17
20 19 18 17 16 15 15 14 13 12 12 11 10 10 9 9 9 9 9 9 9 9 9 9 9 10 10 10 11 11 11 12 12 12 13 13 13 14 14 15 15 16 16
19 18 18 16 15 15 14 13 12 12 11 11 10 10 9 9 9 8 8 8 8 8 8 8 8 9 9 9 10 10 11 11 11 12 12 12 12 13 13 14 15 15 15
19 18 17 16 15 14 13 12 12 11 11 10 10 9 9 9 8 8 8 8 8 8 8 8 8 8 8 9 9 10 10 10 11 11 11 11 12 12 12 13 14 14 14
18 17 16 15 14 13 13 12 12 11 11 10 9 9 9 8 8 8 8 8 8 8 8 8 7 7 8 8 8 9 9 10 10 11 11 11 11 11 12 12 13 13 14
18 17 16 15 14 13 12 12 11 11 10 10 9 9 9 8 8 8 8 8 8 8 7 7 7 7 7 8 8 8 9 9 9 10 10 11 11 11 11 11 12 12 13
17 16 15 15 14 13 12 12 11 11 10 9 9 9 8 8 8 8 8 8 8 7 7 7 7 7 7 7 8 8 8 8 9 9 10 10 11 11 11 11 11 11 12
17 16 15 14 13 13 12 12 11 10 10 9 9 8 8 8 8 8 7 7 7 7 7 7 7 7 7 7 7 7 7 8 8 8 9 9 10 10 11 11 11 11 11
16 15 14 14 13 13 12 11 11 10 9 9 8 8 8 8 7 7 7 7 7 7 7 7 7 7 6 6 6 7 7 7 7 8 8 9 10 10 10 10 10 11 11
15 14 14 13 13 12 12 11 10 10 9 9 8 8 8 7 7 7 7 7 7 7 7 7 7 6 6 6 6 6 6 6 7 8 8 9 9 10 10 10 10 10 10
15 14 14 13 12 12 11 10 10 9 9 8 8 7 7 7 7 7 7 7 7 7 7 7 7 6 6 6 6 6 6 6 7 7 8 8 9 9 10 10 10 10 10
15 14 13 13 12 11 11 10 9 9 8 8 7 7 7 7 7 7 7 7 7 7 7 7 7 6 6 6 6 6 6 6 6 7 8 8 9 9 9 10 10 10 10
15 14 13 12 12 11 10 9 9 8 8 8 7 7 7 7 7 7 7 7 7 7 7 7 7 6 6 6 6 6 6 6 6 7 8 8 9 9 9 9 9 9 9
14 13 12 12 11 10 10 9 8 8 7 7 7 7 7 7 7 7 7 7 7 7 7 7 6 6 6 6 6 6 6 6 6 7 7 8 8 9 9 9 9 9 9
13 13 12 11 11 10 9 8 8 7 7 7 7 7 7 7 7 7 8 8 8 7 7 7 6 6 6 6 6 6 6 6 7 7 7 7 8 8 9 9 9 9 9
13 12 12 11 10 9 9 8 7 7 7 7 7 7 7 7 7 8 8 8 8 8 7 7 6 6 6 6 6 6 6 6 7 7 7 8 8 8 8 8 9 9 9
13 12 11 10 10 9 8 7 7 7 6 6 6 7 7 7 7 8 8 8 8 8 7 7 6 6 6 6 6 6 6 7 7 7 7 7 8 8 8 8 9 9 9
Wind_Speed
9 8 7 7 7 5 4 3 4 6 6 5 7 7 6 6 6 5 2 3 5 5 4 4 3 3 2 3 3 4 5 5 6 6 6 6 9 9 8 9 9 11 13
8 6 5 4 4 4 3 3 6 7 7 7 7 7 7 7 7 4 4 4 5 5 6 4 4 3 3 3 3 2 3 3 4 4 4 4 6 8 11 10 10 11 10
6 4 2 2 3 4 5 6 5 6 8 9 8 9 8 8 7 7 5 4 5 6 5 5 4 4 4 3 4 3 2 2 3 4 4 3 3 4 7 9 9 9 7
4 2 2 4 5 6 6 6 5 6 6 8 9 11 10 10 10 8 7 9 8 7 5 4 4 4 4 4 5 5 3 3 4 4 4 5 1 2 0 4 6 8 7
2 1 3 4 5 7 7 5 4 4 5 6 9 10 10 9 9 10 11 10 9 8 6 3 2 4 4 4 4 4 4 3 4 4 4 5 5 5 2 3 4 5 6
2 2 4 4 4 6 6 6 6 5 6 7 8 9 9 9 11 12 11 9 7 6 6 4 1 2 3 4 4 4 5 5 6 6 5 4 4 4 4 4 4 6 6
3 3 5 6 5 6 6 6 7 7 7 7 7 7 8 10 11 11 9 10 9 8 8 7 3 3 3 4 4 4 4 4 6 7 6 5 6 6 4 3 3 3 4
5 7 8 8 7 8 7 7 7 7 6 7 7 6 8 8 8 10 11 10 10 9 9 8 6 5 5 6 3 3 4 3 3 5 6 5 6 5 4 2 2 2 3
8 9 10 10 9 8 7 7 7 6 7 7 7 7 6 7 9 9 10 10 9 11 11 11 10 8 7 6 5 4 5 4 4 3 4 4 5 5 5 4 3 2 4
10 12 11 11 10 9 7 7 7 7 7 8 7 10 8 8 8 9 9 10 10 9 10 10 10 10 9 8 7 7 7 7 5 4 4 4 3 4 4 5 4 3 3
12 12 11 11 11 11 10 8 8 8 7 7 7 8 8 8 9 8 8 8 9 9 10 10 10 11 11 10 9 9 9 8 7 7 6 6 4 4 4 4 4 4 3
10 11 11 10 11 11 11 10 10 10 8 8 8 8 8 9 9 10 9 8 9 9 10 10 10 11 12 10 10 11 12 10 10 9 8 8 6 6 4 4 4 4 4
10 10 10 10 11 11 11 11 11 11 11 10 9 9 10 10 9 9 9 9 9 10 10 10 10 11 11 11 12 11 11 12 11 10 10 9 9 8 6 5 4 4 4
9 10 9 8 9 9 9 11 11 11 11 11 11 10 10 10 10 10 10 10 10 10 10 11 11 10 11 12 12 12 12 12 12 11 10 10 10 10 9 7 6 5 4
10 10 9 8 8 9 9 10 10 10 10 11 12 11 11 10 11 11 11 10 11 13 11 11 11 11 11 13 12 11 14 12 12 12 11 11 12 13 11 9 8 8 5
11 12 12 11 10 9 10 10 10 9 9 10 12 11 11 12 12 11 12 11 11 11 11 12 13 13 14 15 13 10 10 10 11 11 11 12 12 13 15 14 13 13 10
12 12 12 11 9 9 9 9 9 10 10 11 12 12 12 13 13 15 14 13 12 12 12 12 13 13 13 16 16 15 12 12 11 11 11 14 14 14 12 13 14 13 13
11 12 12 12 11 10 10 9 11 11 11 12 12 13 13 14 14 14 15 13 12 12 12 12 13 12 14 16 16 16 14 13 12 11 11 12 11 11 12 13 12 11 11
10 10 12 13 12 12 10 11 12 12 12 13 13 14 14 15 15 16 15 14 12 12 12 12 12 12 13 15 15 15 11 11 12 12 12 12 12 13 13 12 12 11 9
10 11 12 13 11 10 11 12 12 12 13 13 14 14 15 15 16 16 15 13 12 12 12 12 11 12 12 13 13 13 10 9 9 9 10 14 13 13 13 11 11 11 9
10 11 11 11 10 10 10 11 12 12 12 13 14 15 15 15 16 15 12 12 12 12 12 12 11 10 10 10 11 12 8 8 8 8 8 8 12 13 14 12 9 10 9
11 11 10 10 10 10 10 12 12 12 13 13 14 15 16 16 15 14 13 12 11 11 10 9 9 7 7 7 6 8 9 6 5 5 4 4 10 13 14 11 8 10 9
10 11 11 11 10 10 10 12 12 12 13 14 15 16 17 15 15 13 13 11 9 8 8 7 7 6 5 3 4 5 6 4 2 0 1 2 8 10 9 10 10 9 6
10 10 12 12 11 11 11 10 11 12 12 14 15 15 15 15 14 11 10 9 8 8 8 7 7 6 5 3 1 3 4 5 4 3 3 5 6 6 7 8 8 7 7
9 10 10 11 12 12 11 11 11 11 13 14 14 15 14 14 13 11 9 9 7 5 6 7 6 5 4 4 6 3 1 1 2 3 5 5 5 6 7 7 8 8 7
8 9 11 12 12 12 12 11 11 11 13 13 13 12 12 12 11 11 10 8 7 6 6 5 5 4 1 3 3 4 4 5 3 2 5 6 6 8 8 8 8 9 8
Wind_Direction
111 107 103 98 95 83 67 50 24 21 351 2 341 327 327 330 317 310 4 344 329 325 300 302 297 265 255 266 278 262 247 237 232 237 248 240 221 211 210 212 215 219 221
126 123 117 94 81 73 44 27 25 10 356 359 322 310 329 320 304 327 344 336 339 326 315 299 288 267 256 265 277 267 239 240 227 220 229 233 225 218 212 204 208 216 215
132 121 78 43 32 33 21 24 27 16 10 351 331 339 330 315 321 333 322 345 338 314 309 304 294 281 262 254 246 248 247 252 266 237 228 238 238 220 202 200 201 200 208
151 151 330 3 6 8 6 24 28 32 13 355 340 334 323 321 328 327 328 332 320 302 291 299 311 298 281 263 244 226 218 245 265 279 262 266 289 292 236 197 192 185 195
190 259 318 344 359 357 354 356 12 20 5 350 335 330 324 326 322 322 312 307 298 286 284 279 317 320 304 293 276 264 233 231 249 261 273 270 256 240 235 211 188 184 183
250 288 310 341 5 351 347 346 356 359 357 343 328 320 320 321 315 304 297 300 301 306 312 311 23 322 328 324 305 288 260 238 248 258 266 270 264 246 226 214 198 189 185
275 300 339 354 355 348 354 352 351 351 346 329 318 320 316 308 298 303 324 332 323 319 316 320 323 303 303 303 301 304 292 260 246 251 260 269 277 284 267 225 226 194 170
332 350 357 0 357 356 359 352 347 341 333 325 320 312 297 303 316 328 325 311 301 301 305 316 311 294 279 274 270 282 283 284 268 258 258 268 279 295 303 288 256 217 183
356 355 358 355 358 357 355 347 342 337 331 323 312 298 318 332 321 313 304 305 312 312 319 324 312 297 279 264 253 248 253 255 261 264 263 260 268 290 307 313 299 238 215
358 358 352 349 351 346 345 345 341 336 329 325 328 327 334 317 311 311 308 304 303 304 305 302 300 296 287 272 253 244 238 225 225 229 240 250 259 281 290 301 304 287 249
356 347 345 348 344 339 341 343 340 337 333 332 331 324 317 314 307 301 302 309 311 311 305 302 298 295 290 281 267 253 250 236 224 215 218 224 222 244 266 282 294 291 278
349 343 343 345 340 337 338 337 337 330 330 331 326 318 314 310 308 308 309 305 301 300 300 299 297 293 290 286 279 266 256 244 233 222 214 213 211 212 227 247 264 276 283
350 344 344 340 334 335 334 330 326 326 327 324 320 315 312 309 306 304 301 299 296 293 292 290 289 288 288 286 281 274 266 256 245 233 221 212 204 205 203 211 227 246 264
351 343 340 333 332 330 328 324 322 324 321 321 316 309 307 305 303 300 298 296 294 292 289 287 285 283 282 280 277 273 269 261 253 243 231 218 209 205 199 202 207 212 223
342 339 334 329 328 327 324 319 318 319 319 315 310 306 305 303 300 298 298 296 294 294 292 290 286 282 279 272 266 264 266 261 254 249 239 229 217 210 200 198 195 195 199
338 333 331 329 326 323 318 316 315 318 317 311 308 307 305 304 302 301 297 296 296 295 291 286 283 279 277 281 287 282 279 275 265 255 246 242 228 218 201 196 191 190 195
334 333 332 325 320 315 314 313 316 318 316 312 310 309 309 309 307 306 304 300 299 297 291 285 280 276 272 270 269 267 265 263 260 251 244 244 233 210 199 196 194 195 197
336 334 326 321 318 321 321 322 318 318 319 316 314 313 311 309 307 304 300 299 297 295 291 285 281 277 273 265 258 257 258 256 250 243 236 235 245 225 199 192 196 200 200
336 326 322 319 319 317 323 322 316 318 318 317 317 316 313 308 305 303 301 299 297 294 290 286 280 277 274 266 257 249 256 249 245 238 234 228 228 228 204 193 195 198 199
329 324 321 320 318 322 325 317 316 319 320 322 319 314 309 305 303 299 297 297 295 292 292 288 284 282 279 269 253 241 247 245 241 235 235 228 221 213 196 194 194 200 200
327 326 325 323 322 322 323 317 317 320 324 322 316 312 308 304 299 296 297 297 296 295 293 290 288 285 279 270 249 232 234 237 233 229 225 222 204 198 194 194 194 198 194
329 331 326 322 323 326 328 321 321 326 323 318 315 312 309 306 304 302 300 297 296 296 294 293 295 292 285 272 253 226 225 241 238 228 220 214 196 198 194 192 190 182 183
329 327 325 324 327 332 332 325 328 326 322 319 314 312 310 307 302 299 299 301 300 299 302 306 307 310 308 285 232 207 206 218 239 350 63 213 192 191 197 200 180 175 195
326 327 326 324 326 332 333 333 329 328 323 317 315 313 310 308 306 302 300 300 302 308 316 318 320 324 326 325 286 197 188 186 194 202 176 176 185 200 205 185 187 201 210
323 326 323 325 327 332 332 333 333 330 322 317 315 313 310 307 306 304 298 296 298 300 295 311 321 329 333 3 18 20 64 150 160 197 189 188 184 202 208 200 194 203 213
323 324 325 325 326 328 329 333 334 329 321 317 316 313 309 307 306 305 306 291 274 255 242 249 282 302 312 342 12 51 59 47 40 213 211 213 212 211 208 205 202 203 209
Height
1517 1518 1519 1519 1519 1518 1518 1517 1516 1514 1513 1511 1509 1507 1506 1504 1502 1500 1497 1495 1492 1490 1487 1484 1482 1479 1478 1478 1479 1479 1480 1481 1484 1487 1489 1491 1492 1494 1495 1497 1498 1501 1502
1517 1518 1519 1519 1519 1518 1518 1517 1515 1513 1511 1509 1507 1506 1504 1501 1500 1498 1495 1493 1490 1487 1485 1483 1480 1479 1477 1477 1476 1477 1477 1479 1481 1484 1486 1487 1489 1489 1490 1491 1493 1496 1498
1515 1517 1518 1518 1518 1518 1517 1515 1513 1511 1509 1507 1505 1503 1500 1498 1497 1495 1493 1490 1488 1485 1483 1481 1479 1477 1476 1475 1474 1475 1476 1477 1478 1480 1483 1484 1484 1484 1485 1487 1489 1492 1494
1514 1516 1516 1517 1517 1516 1515 1513 1511 1508 1506 1504 1502 1500 1498 1495 1493 1491 1489 1487 1485 1483 1481 1479 1476 1475 1474 1473 1473 1474 1474 1475 1476 1477 1479 1481 1482 1482 1482 1484 1486 1488 1491
1512 1513 1514 1515 1514 1514 1513 1511 1509 1506 1504 1502 1500 1498 1495 1492 1489 1487 1485 1483 1481 1480 1478 1476 1474 1473 1472 1471 1471 1471 1472 1473 1474 1474 1476 1477 1479 1480 1482 1482 1484 1486 1488
1510 1511 1512 1512 1512 1511 1510 1509 1506 1504 1501 1499 1497 1495 1492 1488 1485 1483 1481 1479 1478 1477 1476 1474 1472 1470 1469 1468 1468 1468 1469 1470 1471 1471 1473 1475 1477 1478 1479 1481 1482 1483 1485
1507 1508 1509 1509 1509 1508 1507 1505 1503 1501 1498 1496 1493 1491 1488 1485 1482 1480 1477 1475 1474 1473 1472 1471 1469 1468 1467 1466 1465 1465 1465 1466 1467 1468 1469 1471 1473 1475 1477 1478 1480 1481 1483
1505 1506 1507 1507 1506 1505 1504 1502 1500 1497 1495 1492 1490 1487 1484 1481 1479 1476 1473 1471 1470 1469 1468 1467 1465 1464 1464 1463 1463 1462 1462 1462 1463 1464 1465 1467 1468 1470 1472 1475 1477 1479 1481
1503 1505 1505 1505 1504 1503 1501 1499 1496 1494 1491 1489 1486 1483 1480 1477 1474 1471 1469 1467 1465 1463 1462 1461 1460 1459 1459 1459 1459 1458 1458 1458 1458 1459 1461 1462 1465 1466 1468 1471 1473 1476 1477
1502 1503 1504 1503 1502 1500 1498 1496 1493 1490 1488 1485 1482 1479 1475 1472 1469 1466 1464 1462 1460 1458 1456 1455 1454 1454 1453 1453 1454 1453 1454 1454 1454 1454 1455 1457 1459 1462 1464 1467 1469 1472 1474
1502 1503 1502 1501 1499 1498 1495 1493 1490 1487 1484 1481 1477 1474 1471 1468 1465 1462 1460 1457 1454 1452 1450 1449 1448 1447 1447 1447 1448 1448 1448 1449 1449 1449 1450 1451 1453 1455 1458 1461 1464 1467 1470
1502 1501 1500 1499 1497 1495 1492 1490 1487 1484 1480 1477 1473 1470 1467 1463 1460 1458 1455 1452 1449 1447 1445 1443 1441 1440 1440 1440 1440 1441 1442 1442 1443 1444 1445 1445 1447 1448 1451 1454 1458 1461 1464
1500 1499 1498 1496 1494 1492 1489 1486 1484 1480 1477 1473 1469 1466 1463 1459 1456 1453 1450 1447 1444 1441 1439 1437 1435 1434 1433 1432 1432 1433 1434 1435 1437 1438 1439 1440 1441 1442 1444 1447 1451 1455 1458
1498 1497 1495 1493 1491 1489 1486 1483 1480 1477 1473 1469 1466 1462 1459 1455 1452 1449 1445 1442 1439 1436 1433 1431 1429 1427 1426 1425 1425 1425 1426 1427 1429 1431 1433 1434 1436 1437 1438 1440 1443 1447 1451
1496 1495 1493 1490 1488 1485 1482 1479 1476 1473 1469 1465 1461 1458 1454 1451 1447 1444 1440 1437 1433 1430 1427 1424 1422 1420 1419 1418 1418 1417 1417 1419 1420 1422 1425 1428 1430 1431 1433 1435 1437 1440 1444
1493 1492 1489 1487 1484 1481 1479 1476 1472 1469 1465 1461 1457 1453 1450 1446 1442 1438 1434 1431 1427 1424 1420 1417 1414 1412 1411 1411 1410 1409 1409 1410 1412 1413 1416 1420 1423 1425 1427 1429 1431 1434 1437
1491 1489 1486 1484 1481 1478 1475 1471 1468 1464 1461 1457 1453 1449 1444 1440 1436 1432 1428 1424 1420 1417 1413 1410 1407 1404 1402 1401 1400 1400 1400 1401 1402 1405 1408 1412 1415 1418 1420 1422 1425 1427 1430
1488 1486 1483 1480 1477 1474 1471 1467 1464 1460 1456 1452 1448 1443 1439 1434 1430 1425 1421 1417 1414 1410 1406 1402 1399 1396 1393 1392 1390 1390 1390 1391 1392 1396 1399 1404 1407 1411 1413 1416 1418 1421 1424
1485 1483 1480 1477 1473 1470 1466 1463 1459 1456 1451 1447 1443 1438 1433 1428 1423 1419 1415 1411 1407 1403 1399 1396 1392 1388 1385 1383 1381 1381 1381 1382 1384 1387 1391 1396 1400 1404 1407 1410 1412 1415 1418
1482 1479 1476 1473 1470 1466 1462 1458 1455 1451 1447 1442 1437 1432 1427 1422 1417 1413 1409 1405 1401 1397 1393 1389 1385 1381 1378 1375 1373 1373 1373 1374 1377 1381 1385 1389 1394 1398 1401 1405 1408 1411 1413
1479 1476 1473 1469 1466 1462 1458 1454 1451 1447 1442 1437 1431 1426 1421 1416 1412 1407 1404 1400 1396 1392 1387 1383 1379 1375 1371 1368 1366 1366 1367 1369 1371 1375 1379 1383 1388 1393 1396 1400 1404 1407 1411
1475 1472 1469 1466 1462 1458 1454 1450 1446 1442 1437 1431 1426 1421 1415 1411 1407 1403 1399 1395 1391 1387 1382 1378 1374 1370 1366 1364 1362 1362 1363 1366 1368 1371 1376 1379 1384 1388 1392 1397 1401 1404 1408
1472 1469 1466 1462 1458 1455 1450 1446 1441 1436 1432 1426 1421 1416 1410 1406 1402 1398 1395 1391 1387 1383 1379 1375 1371 1367 1364 1361 1360 1360 1361 1364 1367 1370 1373 1377 1381 1385 1389 1393 1397 1401 1404
1468 1465 1462 1458 1455 1451 1446 1442 1437 1432 1427 1422 1417 1411 1406 1401 1398 1395 1391 1387 1384 1380 1376 1372 1369 1365 1362 1361 1360 1360 1362 1364 1367 1370 1373 1376 1379 1382 1386 1389 1393 1397 1400
1465 1462 1459 1455 1451 1447 1442 1438 1433 1428 1423 1418 1413 1407 1403 1398 1394 1391 1388 1384 1381 1377 1374 1370 1367 1364 1362 1360 1360 1361 1363 1365 1367 1370 1373 1375 1378 1380 1383 1386 1389 1392 1396
1462 1459 1455 1452 1447 1443 1438 1434 1429 1424 1419 1414 1409 1404 1399 1395 1391 1388 1384 1380 1377 1374 1370 1367 1365 1362 1361 1360 1360 1361 1363 1365 1367 1369 1371 1374 1375 1377 1380 1383 1386 1389 1392